Вернуться в каталог

STARLINK-32826

АктивенСвязьVLEO
NORAD 62970·PAYLOAD·🇺🇸 United States

Запущен Feb 11, 2025 с Vandenberg Space Force Base

Loading…

Ближайшие Пролёты (ближайшие 24 часа)

TLE

СвежийSource: CelesTrak SupGP

Эпоха: Sep 15, 2026, 03:45 UTC

1 62970C 25029Y   26258.15673611 -.00025744  00000+0 -76065-3 0  2583
2 62970  53.1586  70.4079 0001005  83.3066 284.6010 15.34401460    13

Отслеживайте STARLINK-32826 в реальном времени с AllMySat

Download on the App Store